Location: Baia Mare
(47.6567°N, 23.5850°E)
Time: 22:21:49
(UTC+03:00)

ISS - Pass Details

Date: 26 March 2020
Orbit: 418 x 423 km, 51.6° (Epoch: 11 April)

Event Time Altitude Azimuth Distance (km) Brightness Sun altitude
Rises 19:12:43 0° 260° (W) 2,359 1.7 -5.1°
Reaches altitude 10° 19:14:50 10° 265° (W) 1,497 0.7 -5.4°
Maximum altitude 19:18:08 54° 345° (NNW) 514 -3.1 -5.9°
Drops below altitude 10° 19:21:28 10° 64° (ENE) 1,503 -1.4 -6.5°
Enters shadow 19:22:30 - 67° (ENE) 1,919 -0.9 -6.7°
